Вернуться в каталог

STARLINK-30352

АктивенСвязьVLEO
NORAD 57736·PAYLOAD·🇺🇸 United States

Запущен Sep 1, 2023 с Cape Canaveral Space Force Station

Loading…

Ближайшие Пролёты (ближайшие 24 часа)

TLE

СвежийSource: CelesTrak SupGP

Эпоха: Sep 14, 2026, 22:11 UTC

1 57736C 23131E   26257.92479167 -.00018896  00000+0 -68431-3 0  2570
2 57736  43.0019 191.2598 0001416 264.6136 301.5030 15.27592426    18

Отслеживайте STARLINK-30352 в реальном времени с AllMySat

Download on the App Store